TimeCDT,TemperatureF,Dew PointF,Humidity,Sea Level PressureIn,VisibilityMPH,Wind Direction,Wind SpeedMPH,Gust SpeedMPH,PrecipitationIn,Events,Conditions,WindDirDegrees,DateUTC
12:53 AM,59.0,55.9,90,29.83,10.0,SSE,13.8,-,N/A,,Clear,150,2013-10-18 05:53:00
1:53 AM,57.9,55.0,90,29.83,10.0,SSE,12.7,-,N/A,,Clear,160,2013-10-18 06:53:00
2:53 AM,57.9,55.0,90,29.82,10.0,SSE,13.8,-,N/A,,Clear,150,2013-10-18 07:53:00
3:53 AM,57.0,55.0,93,29.81,10.0,South,9.2,-,N/A,,Clear,170,2013-10-18 08:53:00
4:53 AM,55.9,54.0,93,29.81,10.0,South,8.1,-,N/A,,Clear,170,2013-10-18 09:53:00
5:53 AM,55.0,53.1,93,29.82,10.0,SSE,4.6,-,N/A,,Clear,160,2013-10-18 10:53:00
6:53 AM,52.0,51.1,97,29.84,10.0,West,3.5,-,N/A,,Clear,260,2013-10-18 11:53:00
7:53 AM,53.1,52.0,96,29.85,10.0,South,4.6,-,N/A,,Clear,180,2013-10-18 12:53:00
8:53 AM,55.9,53.1,90,29.87,10.0,South,5.8,-,N/A,,Clear,190,2013-10-18 13:53:00
9:53 AM,63.0,55.0,75,29.87,10.0,Calm,Calm,-,N/A,,Clear,0,2013-10-18 14:53:00
10:53 AM,66.0,55.0,68,29.88,10.0,WNW,5.8,-,N/A,,Clear,290,2013-10-18 15:53:00
11:53 AM,71.1,54.0,55,29.87,10.0,North,5.8,-,N/A,,Clear,350,2013-10-18 16:53:00
12:53 PM,75.0,53.1,46,29.85,10.0,Variable,4.6,-,N/A,,Clear,0,2013-10-18 17:53:00
1:53 PM,78.1,43.0,29,29.81,10.0,NNW,6.9,-,N/A,,Clear,330,2013-10-18 18:53:00
2:53 PM,82.0,34.0,18,29.78,10.0,NW,11.5,19.6,N/A,,Clear,310,2013-10-18 19:53:00
3:53 PM,80.1,42.1,26,29.78,10.0,North,15.0,21.9,N/A,,Clear,350,2013-10-18 20:53:00
4:53 PM,80.1,37.0,21,29.79,10.0,North,8.1,18.4,N/A,,Clear,360,2013-10-18 21:53:00
5:53 PM,81.0,28.9,15,29.80,10.0,NNW,9.2,-,N/A,,Clear,340,2013-10-18 22:53:00
6:53 PM,75.0,32.0,21,29.84,10.0,NNE,12.7,-,N/A,,Clear,30,2013-10-18 23:53:00
7:53 PM,68.0,34.0,28,29.89,10.0,ENE,6.9,-,N/A,,Clear,60,2013-10-19 00:53:00
8:36 PM,61.0,44.1,54,30.05,4.0,NE,23.0,35.7,N/A,,Haze,40,2013-10-19 01:36:00
8:53 PM,59.0,44.1,58,29.99,3.0,NE,23.0,32.2,N/A,,Haze,50,2013-10-19 01:53:00
9:53 PM,52.0,42.1,69,30.06,7.0,NE,19.6,-,N/A,,Overcast,40,2013-10-19 02:53:00
10:07 PM,51.1,42.1,71,30.16,7.0,NE,16.1,-,N/A,,Overcast,40,2013-10-19 03:07:00
10:16 PM,51.1,42.1,71,30.16,8.0,NE,18.4,25.3,N/A,,Overcast,40,2013-10-19 03:16:00
10:53 PM,51.1,41.0,68,30.14,10.0,North,17.3,-,N/A,,Overcast,10,2013-10-19 03:53:00
11:53 PM,48.9,37.9,66,30.17,10.0,North,12.7,-,N/A,,Overcast,360,2013-10-19 04:53:00